User: anonymous   Login
Location: Unspecified
(0.0000°N, 0.0000°E)
Time: 21:06:22
(UTC+00:00)
Language:

Alouette 1 - Orbit

View from above orbital plane
View from above orbital plane
View from above satellite
View from above satellite

Ground track
Ground track

The orbit data is extracted from the following two-line orbital elements,

1 00424U 62049A   16149.94356640  .00000059  00000-0  58023-4 0  9995
2 00424  80.4669 287.0269 0022538 347.6270 160.3874 13.69055154678894
Epoch (UTC): 28 May 2016 22:38:44
Eccentricity: 0.0022538
inclination: 80.4669°
perigee height: 986 km
apogee height: 1019 km
right ascension of ascending node: 287.0269°
argument of perigee: 347.6270°
revolutions per day: 13.69055154
mean anomaly at epoch: 160.3874°
orbit number at epoch: 67889

The dashed part of the orbit path shows where the satellite is in the earth's shadow,  

DLR